This is the latest recevied weather packets stored in our database for station/object KC4BAM. If no packets are shown the sender has not sent any weather packets the latest 10 day(s).
| Time | Temp. | Humidity | Pressure | Rain* | Wind** | Luminosity | Snow |
|---|---|---|---|---|---|---|---|
| 1778116359 | 11.67° C | 96% | 1006.3 hPa | 0 mm | - | 0 W/m² | - |
| 1778116058 | 12.22° C | 96% | 1006.1 hPa | 0 mm | - | 0 W/m² | - |
| 1778115755 | 12.22° C | 96% | 1006.1 hPa | 0 mm | - | 0 W/m² | - |
| 1778115452 | 12.22° C | 96% | 1005.4 hPa | 0 mm | - | 0 W/m² | - |
| 1778115149 | 12.22° C | 96% | 1005.5 hPa | 0 mm | - | 0 W/m² | - |
| 1778114845 | 12.22° C | 96% | 1005 hPa | 0 mm | - | 0 W/m² | - |
| 1778114543 | 12.22° C | 95% | 1005.2 hPa | 0 mm | - | 1 W/m² | - |
| 1778114239 | 12.22° C | 95% | 1004.8 hPa | 0 mm | - | 1 W/m² | - |
| 1778113934 | 11.67° C | 95% | 1004.8 hPa | 0 mm | - | 1 W/m² | - |
| 1778113630 | 11.67° C | 95% | 1004.4 hPa | 0 mm | - | 1 W/m² | - |
| 1778113327 | 11.67° C | 95% | 1004.5 hPa | 0 mm | - | 3 W/m² | - |
| 1778113023 | 11.67° C | 95% | 1004.4 hPa | 0 mm | - | 4 W/m² | - |
| 1778112721 | 11.67° C | 95% | 1004.4 hPa | 0 mm | - | 10 W/m² | - |
| 1778112417 | 11.67° C | 95% | 1004.2 hPa | 0 mm | - | 8 W/m² | - |
| 1778112112 | 12.22° C | 95% | 1004.2 hPa | 0 mm | - | 8 W/m² | - |
| 1778111810 | 12.22° C | 95% | 1004 hPa | 0 mm | - | 10 W/m² | - |
| 1778111505 | 12.22° C | 95% | 1004.2 hPa | 0 mm | - | 13 W/m² | - |
| 1778111203 | 12.22° C | 95% | 1004.4 hPa | 0 mm | - | 11 W/m² | - |
| 1778110899 | 12.22° C | 95% | 1004.3 hPa | 0 mm | - | 13 W/m² | - |
| 1778110596 | 12.22° C | 95% | 1004.4 hPa | 0 mm | - | 15 W/m² | - |
| 1778110294 | 12.22° C | 94% | 1003.8 hPa | 1.27 mm | - | 17 W/m² | - |
| 1778109990 | 12.22° C | 94% | 1003.4 hPa | 1.27 mm | - | 17 W/m² | - |
| 1778109685 | 12.78° C | 94% | 1004.1 hPa | 1.78 mm | - | 13 W/m² | - |
| 1778109383 | 12.22° C | 94% | 1004.8 hPa | 1.78 mm | - | 11 W/m² | - |
| 1778109081 | 12.22° C | 94% | 1005 hPa | 1.78 mm | - | 12 W/m² | - |
* Rain latest hour (hover to see other rain measurements)
** Current wind speed in m/s (hover to see current wind gust speed)